Location: Les Jeannots
(43.2262°N, 5.5774°E)
Time: 02:25:23
(UTC+00:00)

SL-8 Rocket - Pass Details

Date: 05 July 2020
Orbit: 957 x 990 km, 82.9° (Epoch: 04 August)

Event Time Altitude Azimuth Distance (km) Brightness Sun altitude
Exits shadow 23:30:59 44° 219° (SW) 1,314 4.3 -24.1°
Maximum altitude 23:32:53 64° 280° (W) 1,062 4.2 -24.1°
Drops below altitude 10° 23:39:01 10° 2° (N) 2,700 7.4 -24.1°
Sets 23:41:33 0° 6° (N) 3,649 8.4 -24.1°
